Torna al catalogo

STARLINK-35120

AttivoComunicazioniSSO
NORAD 65659·PAYLOAD·🇺🇸 United States

Lanciato Sep 19, 2025 da Vandenberg Space Force Base

Loading…

Prossimi Passaggi (prossime 24 ore)

TLE

AggiornatoSource: CelesTrak SupGP

Epoca: Sep 14, 2026, 21:28 UTC

1 65659C 25211H   26257.89493056 -.00006084  00000+0 -18891-3 0  2574
2 65659  97.2836 298.1695 0001241  90.7710 205.6154 15.33435839    18

Traccia STARLINK-35120 in tempo reale con AllMySat

Download on the App Store